[[{"header":{"parameterUnit":"m.s-1","parameterCategory":1,"la1":30.2991,"la2":30.254,"lo1":-89.0895,"lo2":-89.0444,"dy":0.0017,"dx":0.0017,"nx":28,"ny":28,"refTime":"2023-07-21T09:00:00:Z","depth":0,"parameterNumber":2,"parameterNumberName":"U-component_of_WINDS"},"data":[0,0,0,0,0,0,0,0,0,0,0,0,0,0,0,0,0,0,0,0,0,0,0,0,0,0,0,0,0,0,0,0,0,0,0,0,0,0,0,0,0,0,0,0,0,0,0,0,0,0,0,0,0,0,0,0,0,0,3.2993,3.2994,0,3.316,3.3162,3.3164,3.3214,3.3213,3.3213,3.3212,3.3387,3.3392,3.3397,0,0,0,0,0,0,0,0,0,0,0,0,0,3.2719,3.2723,3.2992,3.2994,3.2997,3.316,3.3162,3.3165,3.3214,3.3213,3.3212,3.3211,3.3385,3.3391,3.3398,0,0,0,0,0,0,0,0,0,0,0,0,0,3.2857,3.2725,3.2992,3.3041,3.3047,3.316,3.3162,3.3165,3.3215,3.3213,3.3212,3.3211,3.3383,3.3391,3.3399,3.3475,0,0,3.3424,3.3427,0,0,0,0,0,0,0,0,3.2849,3.2867,3.3032,3.3038,3.3045,3.3165,3.313,3.3269,3.3215,3.3151,3.3212,3.321,3.3314,3.3328,3.3362,3.3483,3.3491,3.3424,3.3429,3.3433,3.3435,0,0,0,0,0,0,0,3.284,3.286,3.3059,3.3034,3.3042,3.3056,3.3074,3.3157,3.3238,3.3157,3.3161,3.318,3.3317,3.3354,3.3367,3.3494,3.3424,3.3431,3.3436,3.344,3.3688,3.3689,0,0,0,0,0,0,3.2821,3.2852,3.3054,3.3064,3.2942,3.3062,3.3082,3.3128,3.3237,3.3252,3.3181,3.3181,3.3341,3.3357,3.3373,3.347,3.3433,3.344,3.3445,3.3686,3.3688,3.369,0,0,0,0,0,0,3.2815,3.2839,3.3047,3.2959,3.2987,3.3068,3.3119,3.3132,3.3168,3.3255,3.327,3.3203,3.334,3.3362,3.345,3.3477,3.3444,3.3452,3.3684,3.3687,3.3689,3.3664,0,0,0,0,0,0,3.2807,3.2836,3.2865,3.2959,3.2991,3.3119,3.312,3.3136,3.3182,3.3185,3.328,3.3295,3.3341,3.3437,3.3458,3.3487,3.3458,3.3682,3.3685,3.3688,3.3663,3.3665,3.3668,0,0,0,0,0,3.2797,3.2852,3.2866,3.289,3.3029,3.312,3.3139,3.319,3.3184,3.3214,3.3271,3.3292,3.3471,3.3446,3.3469,3.3502,3.368,3.3684,3.3688,3.3662,3.3665,3.3668,0,0,0,0,0,0,3.2759,3.2865,3.2882,3.2968,3.3035,3.3129,3.3168,3.3192,3.3262,3.3261,3.3323,3.3344,3.3428,3.3474,3.3444,3.3583,3.3577,3.3585,3.3549,3.3552,3.3555,3.3541,3.3465,0,0,0,0,0,3.276,3.2825,3.2915,3.2982,3.3015,3.3086,3.3128,3.3162,3.3233,3.3262,3.3324,3.3394,3.3466,3.3512,3.3584,3.3671,3.3693,3.3705,3.3708,3.3709,3.3715,3.3766,3.3772,3.3702,3.3702,3.3702,0,0,3.2764,3.283,3.2867,3.2976,3.3032,3.3098,3.3109,3.3179,3.3229,3.3273,3.3359,3.3408,3.349,3.3578,3.362,3.3619,3.374,3.3714,3.3715,3.372,3.377,3.3777,3.3782,3.3705,3.3704,3.3704,0,0,3.2804,3.2861,3.2923,3.2979,3.3063,3.311,3.3125,3.3216,3.325,3.3338,3.3372,3.3434,3.3557,3.3614,3.3659,3.3724,3.3746,3.3746,3.3758,3.3806,3.3811,3.3817,3.3839,3.3847,3.3752,3.3752,3.3752,0,3.2798,3.2898,3.2953,3.3021,3.3069,3.3112,3.3176,3.3228,3.3331,3.3364,3.3362,3.3517,3.3576,3.3678,3.3693,3.3729,3.3749,3.3734,3.3806,3.3812,3.3818,3.384,3.3848,3.3751,3.3752,3.3752,3.3752,0,3.2887,3.2957,3.2997,3.3095,3.3148,3.3214,3.3279,3.3327,3.3357,3.3405,3.3494,3.3567,3.3653,3.3681,3.3711,3.3788,3.3785,3.3794,3.3788,3.3823,3.3845,3.3854,3.375,3.3751,3.3751,3.3751,0,0,3.2905,3.3033,3.3047,3.3093,3.319,3.3245,3.3314,3.3399,3.3438,3.3509,3.3568,3.3672,3.3682,3.3733,3.3771,3.3813,3.386,3.3818,3.3821,3.3822,3.3949,3.394,3.3949,3.3876,3.3878,3.388,3.3942,0,3.2956,3.308,3.3132,3.3232,3.3297,3.334,3.3401,3.3468,3.3515,3.3579,3.3632,3.3704,3.3711,3.3743,3.3787,3.3845,3.3886,3.3841,3.3933,3.3935,3.3909,3.3961,3.3952,3.4006,3.3951,3.3952,3.3954,0,3.3032,3.3103,3.3209,3.3299,3.3329,3.3381,3.3464,3.3524,3.3601,3.3633,3.3691,3.3727,3.3803,3.3795,3.39,3.3869,3.391,3.3944,3.3948,3.3957,3.3945,3.397,3.4025,3.4032,3.3968,3.3967,3.3966,0,3.3033,3.3155,3.3235,3.3272,3.338,3.3416,3.3463,3.3539,3.3587,3.366,3.3692,3.3773,3.3817,3.3879,3.3937,3.3925,3.4037,3.4033,3.4066,3.4064,3.4086,3.4083,3.4146,3.4115,3.4115,3.4114,3.4114,0,3.3084,3.3147,3.3236,3.3285,3.3358,3.3418,3.3489,3.3539,3.3607,3.3667,3.3711,3.3767,3.384,3.3906,3.3952,3.4032,3.4053,3.4081,3.4092,3.4076,3.4072,3.4102,3.4099,3.4117,3.4116,3.4116,3.4115,0,3.3096,3.3159,3.3248,3.3343,3.3369,3.3418,3.35,3.355,3.36,3.3676,3.3697,3.3777,3.3856,3.3921,3.4025,3.4056,3.4141,3.4154,3.4113,3.4119,3.4147,3.4143,3.4231,3.4246,3.4205,3.4205,3.4205,0,3.3123,3.3173,3.3274,3.3317,3.3363,3.3432,3.3481,3.3544,3.3594,3.3687,3.3726,3.3808,3.3878,3.4003,3.4071,3.4152,3.4167,3.4192,3.4179,3.4162,3.4166,3.4162,3.4167,3.4193,3.4193,3.4193,3.4193,0,3.3165,3.3194,3.3263,3.3343,3.34,3.3467,3.3534,3.3567,3.3643,3.3697,3.3778,3.3832,3.3939,3.4021,3.4109,3.4159,3.4189,3.4197,3.4209,3.4192,3.4166,3.4179,3.4116,3.4194,3.4194,3.4194,3.4194,3.4194,3.3185,3.3232,3.331,3.3385,3.3443,3.3505,3.3557,3.3614,3.3683,3.3774,3.3808,3.3892,3.3971,3.4092,3.4143,3.421,3.4213,3.423,3.4234,3.4237,3.4234,3.4156,3.4227,3.4227,3.4227,3.4227,3.4227,0,3.3228,3.3282,3.3351,3.3443,3.3503,3.3527,3.3603,3.3652,3.3725,3.3795,3.3863,3.3958,3.4038,3.4113,3.4197,3.4237,3.4253,3.4257,3.4253,3.4264,3.4227,3.4208,3.4242,3.4242,3.4242,3.4242,3.4242,3.4242,3.3258,3.3337,3.3376,3.3485,3.3538,3.362,3.3662,3.372,3.3777,3.388,3.3947,3.3995,3.4068,3.4158,3.4234,3.4254,3.4282,3.4283,3.4306,3.4269,3.4267,3.4265,3.4247,3.4289,3.4289,3.4338,3.4338,3.4338]},{"header":{"parameterUnit":"m.s-1","parameterCategory":1,"la1":30.2991,"la2":30.254,"lo1":-89.0895,"lo2":-89.0444,"dy":0.0017,"dx":0.0017,"nx":28,"ny":28,"refTime":"2023-07-21T09:00:00:Z","depth":0,"parameterNumber":3,"parameterNumberName":"V-component_of_WINDS"},"data":[0,0,0,0,0,0,0,0,0,0,0,0,0,0,0,0,0,0,0,0,0,0,0,0,0,0,0,0,0,0,0,0,0,0,0,0,0,0,0,0,0,0,0,0,0,0,0,0,0,0,0,0,0,0,0,0,0,0,6.7043,6.7045,0,6.7168,6.717,6.7171,6.7195,6.7194,6.7193,6.7192,6.7307,6.7311,6.7315,0,0,0,0,0,0,0,0,0,0,0,0,0,6.6813,6.6817,6.7043,6.7045,6.7046,6.7168,6.717,6.7171,6.7195,6.7194,6.7192,6.7191,6.7306,6.7311,6.7315,0,0,0,0,0,0,0,0,0,0,0,0,0,6.6922,6.6818,6.7043,6.7073,6.7077,6.7168,6.717,6.7172,6.7195,6.7194,6.7192,6.7191,6.7304,6.731,6.7316,6.7382,0,0,6.7334,6.7337,0,0,0,0,0,0,0,0,6.6916,6.6931,6.7067,6.7071,6.7076,6.7165,6.7131,6.7242,6.7195,6.715,6.7192,6.719,6.726,6.727,6.7296,6.7387,6.7392,6.7335,6.7338,6.7341,6.7343,0,0,0,0,0,0,0,6.6909,6.6926,6.7092,6.7069,6.7074,6.7076,6.709,6.7152,6.7211,6.7154,6.7156,6.7171,6.7262,6.729,6.7299,6.7394,6.7335,6.734,6.7344,6.7346,6.7544,6.7546,0,0,0,0,0,0,6.6897,6.6919,6.7088,6.7096,6.6991,6.7082,6.7097,6.7137,6.7211,6.7221,6.7172,6.7171,6.7281,6.7292,6.7303,6.7384,6.7341,6.7347,6.735,6.7543,6.7545,6.7546,0,0,0,0,0,0,6.6892,6.6912,6.7083,6.7008,6.703,6.7087,6.7132,6.7141,6.7169,6.7225,6.7234,6.719,6.728,6.7294,6.7363,6.7388,6.7349,6.7355,6.7541,6.7543,6.7545,6.7547,0,0,0,0,0,0,6.6886,6.691,6.6939,6.7009,6.7034,6.7145,6.7134,6.7144,6.718,6.7181,6.7244,6.7253,6.728,6.7354,6.7369,6.7396,6.7359,6.7538,6.7542,6.7545,6.7545,6.7549,6.7553,0,0,0,0,0,6.6877,6.6932,6.694,6.696,6.7072,6.7146,6.716,6.7193,6.7182,6.7209,6.7245,6.7251,6.7384,6.7361,6.7377,6.7407,6.7537,6.7541,6.7544,6.7543,6.7549,6.7553,0,0,0,0,0,0,6.6858,6.6941,6.6952,6.7031,6.7082,6.715,6.7185,6.7198,6.7249,6.7247,6.7282,6.7296,6.7362,6.7391,6.7364,6.7474,6.7459,6.7466,6.7452,6.7458,6.7462,6.7452,6.7364,0,0,0,0,0,6.6864,6.6922,6.699,6.7053,6.7078,6.7127,6.7161,6.7183,6.7235,6.7255,6.7296,6.7343,6.7395,6.7428,6.7479,6.755,6.7563,6.7578,6.7582,6.7586,6.7591,6.7629,6.7636,6.7559,6.7559,6.7559,0,0,6.6875,6.6927,6.6961,6.705,6.7092,6.7147,6.7145,6.7203,6.7243,6.7262,6.733,6.7362,6.7416,6.7486,6.7519,6.7512,6.7615,6.759,6.7592,6.7596,6.7634,6.7641,6.7647,6.7561,6.7561,6.7561,0,0,6.6923,6.697,6.7028,6.7071,6.7136,6.7168,6.7182,6.7249,6.7272,6.7342,6.7357,6.7403,6.7493,6.7531,6.7562,6.7626,6.7633,6.7641,6.7662,6.7699,6.7705,6.771,6.7731,6.7739,6.7647,6.7647,6.7647,0,6.6926,6.7015,6.7054,6.7113,6.7151,6.7175,6.7232,6.727,6.7347,6.737,6.7364,6.7477,6.7515,6.7594,6.761,6.7635,6.7649,6.7633,6.7701,6.7707,6.7713,6.7733,6.7741,6.7647,6.7647,6.7647,6.7647,0,6.7015,6.7076,6.7114,6.7193,6.7234,6.7291,6.7336,6.7373,6.7391,6.7423,6.7492,6.754,6.7601,6.7622,6.7638,6.7702,6.7696,6.7695,6.7681,6.772,6.774,6.7748,6.7648,6.7648,6.7648,6.7647,0,0,6.7052,6.7154,6.7167,6.7203,6.7278,6.7323,6.738,6.7444,6.7474,6.7526,6.7573,6.7649,6.7649,6.7684,6.7705,6.7737,6.7783,6.7732,6.7734,6.7738,6.7855,6.7854,6.7863,6.7789,6.7791,6.7792,6.785,0,6.7108,6.7216,6.7253,6.734,6.7395,6.742,6.7469,6.7518,6.755,6.7598,6.7631,6.7684,6.7681,6.7702,6.7736,6.777,6.7806,6.7767,6.7829,6.7831,6.7814,6.7874,6.7873,6.7925,6.7858,6.7859,6.786,0,6.7187,6.7245,6.7339,6.7407,6.7431,6.7476,6.7537,6.7584,6.7639,6.7659,6.77,6.7719,6.7776,6.776,6.7837,6.7809,6.7837,6.7858,6.7861,6.7866,6.7847,6.7879,6.7943,6.795,6.7873,6.7872,6.7871,0,6.7202,6.7304,6.7373,6.7403,6.7485,6.7515,6.7549,6.7604,6.764,6.7692,6.7715,6.7772,6.7802,6.7844,6.7877,6.7863,6.795,6.7937,6.7966,6.7965,6.7982,6.798,6.805,6.8002,6.8002,6.8002,6.8002,0,6.726,6.7315,6.7382,6.7424,6.7486,6.7528,6.7587,6.7623,6.7671,6.7717,6.7741,6.7783,6.7825,6.7872,6.7897,6.7956,6.797,6.7985,6.7991,6.7983,6.7981,6.8,6.7996,6.8004,6.8004,6.8003,6.8003,0,6.7287,6.7334,6.7411,6.7484,6.7503,6.7546,6.7605,6.7645,6.7679,6.7738,6.7754,6.7805,6.7862,6.79,6.797,6.7987,6.8051,6.8057,6.8034,6.8037,6.8063,6.806,6.8146,6.8159,6.8104,6.8105,6.8105,0,6.7319,6.7364,6.7442,6.7478,6.7514,6.757,6.7608,6.765,6.7688,6.7755,6.7786,6.7846,6.7895,6.7984,6.8025,6.8079,6.8085,6.8111,6.8093,6.8083,6.8083,6.808,6.8084,6.8113,6.8114,6.8114,6.8115,0,6.7371,6.7393,6.745,6.7515,6.7562,6.7614,6.7665,6.7691,6.7742,6.7783,6.7844,6.7882,6.7957,6.8015,6.8073,6.8104,6.8117,6.8121,6.813,6.8121,6.8106,6.8113,6.8041,6.8118,6.8118,6.8117,6.8117,6.8117,6.7401,6.7442,6.7505,6.7567,6.7611,6.7659,6.7701,6.7742,6.7795,6.7862,6.7883,6.7945,6.7998,6.8078,6.8111,6.8158,6.8155,6.8168,6.8171,6.8174,6.8174,6.81,6.8168,6.8168,6.8168,6.8168,6.8168,0,6.7453,6.7496,6.7553,6.7627,6.7675,6.7689,6.7747,6.7785,6.7841,6.7892,6.7942,6.801,6.8067,6.8113,6.8171,6.8199,6.8206,6.8212,6.821,6.8216,6.8174,6.8159,6.8206,6.8206,6.8206,6.8206,6.8206,6.8206,6.7486,6.7556,6.7585,6.7676,6.7716,6.7782,6.7814,6.7857,6.7898,6.7976,6.8025,6.8057,6.8104,6.8166,6.8217,6.8229,6.8248,6.8253,6.8265,6.8224,6.8219,6.8215,6.8202,6.8257,6.8257,6.8304,6.8305,6.8305]}]]